Location: Boullarre
(49.1305°N, 3.0047°E)
Time: 20:43:08
(UTC+00:00)

ISS - Pass Details

Date: 21 September 2024
Orbit: 411 x 423 km, 51.6° (Epoch: 14 October)

Event Time Altitude Azimuth Distance (km) Brightness Sun altitude
Rises 21:01:15 0° 290° (WNW) 2,377 1.0 -29.9°
Reaches altitude 10° 21:03:22 10° 286° (WNW) 1,513 -0.2 -30.2°
Enters shadow 21:03:42 12° 284° (WNW) 1,379 -0.5 -30.2°
